#timestamp,LO_Frequency,Hit,StdDev 
1513576815.8,286046995.3,N
1513576835.7,286047002.6,N
1513576855.5,286047002.9,N
1513576875.3,286047006.0,N
1513576895.2,286047007.5,N
1513576915.9,286047009.3,N
1513576935.7,286047015.1,N
1513576955.6,286047017.8,N
1513576975.4,286047018.9,N
1513576995.2,286047025.1,Y
1513577015.1,286047028.5,P
1513577016.0,286047028.5,N
1513577035.8,286047031.7,N
1513577055.6,286047034.9,N
1513577075.5,286047036.8,N
1513577095.3,286047040.6,Y
1513577115.1,286047014.2,P
1513577135.9,286047016.8,N
1513577155.7,286047016.3,P
1513577175.5,286047014.1,N
1513577195.4,286047018.1,Y
1513577215.2,286047002.6,P
1513577235.0,286046999.8,N
1513577235.9,286046999.8,N
1513577255.8,286047002.8,N
1513577275.6,286046998.7,N
1513577295.4,286047003.2,N
1513577315.2,286047003.3,N
1513577335.1,286047005.0,N
1513577336.0,286047005.0,N
1513577355.8,286047006.0,N
1513577375.6,286047001.8,N
1513577395.5,286047003.9,N
1513577415.3,286047005.8,N
1513577435.1,286047004.1,N
1513577455.9,286047000.3,N
1513577475.7,286046998.5,N
1513577495.5,286046999.4,N
1513577515.4,286047001.1,N
1513577535.2,286047001.8,N
1513577555.0,286047001.0,N
1513577555.9,286047001.0,N
1513577575.8,286047003.1,N
1513577595.6,286047002.9,N
1513577615.4,286047006.0,N
1513577635.2,286047004.5,N
1513577655.1,286047007.4,N
1513577656.0,286047007.4,N
1513577675.8,286047007.3,N
1513577695.6,286047007.9,N
1513577715.5,286047009.3,N
1513577735.3,286047008.7,Y
1513577755.1,286047002.9,P
1513577775.9,286047004.6,P
1513577795.7,286047005.6,P
1513577815.5,286047007.0,Y
1513577835.4,286047002.8,P
1513577855.2,286047002.0,N
1513577875.0,286046999.4,N
1513577875.9,286046999.4,N
1513577895.8,286046995.1,N
1513577915.6,286046993.5,N
1513577935.4,286046993.9,N
1513577955.3,286046993.5,N
1513577975.1,286046994.0,N
1513577976.0,286046994.0,N
1513577995.8,286046992.1,N
1513578015.7,286046994.2,N
1513578035.5,286046989.0,N
1513578055.3,286046989.3,N
1513578075.2,286046991.5,N
1513578095.9,286046989.6,N
1513578115.7,286046989.9,N
1513578135.6,286046984.2,Y
1513578155.4,286046991.1,P
1513578175.2,286046992.0,P
1513578195.1,286046990.5,P
1513578196.0,286046990.5,Y
1513578215.8,286046996.2,P
1513578235.6,286046992.6,P
1513578255.5,286046990.6,P
1513578275.3,286046993.0,Y
1513578295.1,286046999.3,P
1513578315.9,286046999.4,N
1513578335.7,286046996.1,N
1513578355.5,286046996.2,N
1513578375.3,286046995.9,N
1513578395.2,286046994.2,N
1513578415.0,286046992.2,Y
1513578415.9,286046992.2,P
1513578435.8,286046991.7,P
1513578455.6,286046995.0,N
1513578475.4,286046996.4,N
1513578495.2,286046995.8,N
1513578515.1,286046993.9,Y
1513578516.0,286046993.9,P
1513578535.8,286046998.3,P
1513578555.7,286047001.1,N
1513578575.5,286046998.6,N
1513578595.3,286046993.3,N
1513578615.1,286046996.1,N
1513578635.9,286046995.7,N
1513578655.7,286046993.9,N
1513578675.5,286046993.8,N
1513578695.4,286046997.9,N
1513578715.2,286046993.6,N
1513578735.0,286046994.3,N
1513578735.9,286046994.3,N
1513578755.8,286046994.4,N
1513578775.6,286046993.0,Y
1513578795.4,286046996.2,P
1513578815.3,286046993.3,P
1513578835.1,286046995.0,P
1513578836.0,286046995.0,Y
1513578855.8,286046999.1,P
1513578875.7,286047000.2,N
1513578895.5,286047003.7,N
1513578915.3,286047001.8,N
1513578935.2,286047002.5,N
1513578955.9,286047003.9,N
1513578975.7,286047001.7,N
1513578995.6,286046998.5,N
1513579015.4,286046996.8,N
1513579035.2,286046996.6,N
1513579055.0,286047004.4,N
1513579055.9,286047004.4,N
1513579075.8,286047001.6,N
1513579095.6,286047000.1,N
1513579115.4,286046999.9,N
1513579135.3,286047002.7,N
1513579155.1,286046998.1,N
1513579175.8,286047003.7,N
1513579195.7,286047002.6,N
1513579215.5,286046998.5,N
1513579235.3,286046998.7,N
1513579255.2,286047000.7,N
1513579275.9,286047001.1,N
1513579295.7,286046998.8,N
1513579315.5,286046999.5,N
1513579335.4,286047001.4,N
1513579355.2,286047005.9,N
1513579375.0,286047004.5,N
1513579375.9,286047004.5,N
1513579395.8,286047007.0,N
1513579415.6,286047008.9,Y
1513579435.4,286047001.8,P
1513579455.3,286047005.4,P
1513579475.1,286047004.1,N
1513579495.8,286046999.5,N
1513579515.7,286046994.3,N
1513579535.5,286046991.7,N
1513579555.3,286046994.4,N
1513579575.2,286046989.4,N
1513579595.9,286046989.0,N
1513579615.7,286046988.7,N
1513579635.6,286046988.2,N
1513579655.4,286046987.5,N
1513579675.2,286046986.5,N
1513579695.0,286046986.8,N
1513579696.0,286046986.8,N
1513579715.8,286046983.7,N
1513579735.6,286046978.9,Y
1513579755.5,286046986.0,P
1513579775.3,286046984.8,P
1513579795.1,286046986.8,P
1513579815.9,286046984.8,Y
1513579835.7,286046992.2,P
1513579855.5,286046989.1,P
1513579875.3,286046987.0,P
1513579895.2,286046989.8,Y
1513579915.0,286046996.7,P
1513579915.9,286046996.7,N
1513579935.8,286046997.2,N
1513579955.6,286046999.4,N
1513579975.4,286046995.2,N
1513579995.2,286046994.4,N
1513580015.1,286046993.2,N
1513580016.0,286046993.2,N
1513580035.8,286046997.9,N
1513580055.6,286046998.3,N
1513580075.5,286046994.0,N
1513580095.3,286046994.5,N
1513580115.1,286046993.0,N
1513580135.9,286046994.2,N
1513580155.7,286046993.3,N
1513580175.5,286046995.3,N
1513580195.4,286046996.6,N
1513580215.2,286046999.5,N
1513580235.0,286047001.1,N
1513580235.9,286047001.1,N
1513580255.7,286047001.9,N
1513580275.6,286047006.6,N
1513580295.4,286047004.9,N
1513580315.2,286047006.1,N
1513580335.1,286047010.5,N
1513580336.0,286047010.5,N
1513580355.8,286047009.7,N
1513580375.6,286047009.9,N
1513580395.5,286047011.3,N
